Miscellaneous Local Product
Issued by NWS North Platte, NE

Home | Current Version | Previous Version | Text Only | Print | Product List | Glossary On
Versions: 1 2 3 4 5 6 7 8 9 10 11 12 13 14 15 16 17 18 19 20 21 22 23 24 25 26 27 28 29 30 31 32 33 34 35 36 37 38 39 40 41 42 43 44 45 46 47 48 49 50
000
AXUS43 KLBF 232210
MISLBF


WESTERN AND NORTH CENTRAL NEBRASKA HOURLY WEATHER ROUNDUP
NATIONAL WEATHER SERVICE NORTH PLATTE NE
500 PM CDT SAT MAY 23 2015

***STATIONS NOT REPORTING VARIABLES SUCH AS SKY/WEATHER OR
PRESSURE ARE PROVIDED BY THE NEBRASKA DEPARTMENT OF
ROADS...RAWS...AND APRS NETWORKS...AND ARE NOT UNDER
NATIONAL WEATHER SERVICE QUALITY CONTROL***

...OBSERVATIONS IN AND NEAR THE EASTERN PANHANDLE OF NEBRASKA...

CITY           SKY/WX    TMP DP  RH WIND       PRES   REMARKS
PINE RIDGE     CLOUDY    60  51  72 E16       29.98F
CHADRON        CLOUDY    58  55  90 E13       29.97S
ALLIANCE       CLOUDY    54  53  97 SE13      29.96F
SIDNEY         CLOUDY    57  53  86 SE17      29.93S
WHITECLAY        N/A     56  53  89 E6          N/A
BIG SPRINGS      N/A     62  56  81 SE14        N/A
$$

...OBSERVATIONS IN NORTH CENTRAL NEBRASKA...

CITY           SKY/WX    TMP DP  RH WIND       PRES   REMARKS
VALENTINE      CLOUDY    60  53  77 E16       30.02F
THEDFORD       CLOUDY    55  54  96 SE9       30.03F
AINSWORTH      CLOUDY    57  54  89 SE14      30.04F
O`NEILL        CLOUDY    60  55  84 SE10      30.08F
ORD            CLOUDY    58  53  84 SE9       30.04F
BROKEN BOW     CLOUDY    58  54  86 E12       30.02F
BROWNLEE         N/A     57  55  92 E16         N/A
VALENTINE NWR    N/A     54  54  99 SE12        N/A
SPRINGVIEW       N/A     57  53  86 E9          N/A
BREWSTER         N/A     57  56  99 SE9         N/A
ROSE             N/A     57  56  99 E8          N/A
NEWPORT          N/A     58  55  89 E12         N/A
SARGENT          N/A     57  54  91 SE5         N/A
COMSTOCK         N/A     62  61  94 E13         N/A
EWING            N/A     58  55  90 E5          N/A
$$

...OBSERVATIONS IN SOUTHWEST NEBRASKA AND FAR NORTHEAST COLORADO...

CITY           SKY/WX    TMP DP  RH WIND       PRES   REMARKS
WRAY           CLOUDY    66  53  63 E15G22    29.91F
IMPERIAL       PTSUNNY   64  52  64 SE16      29.92F
OGALLALA       CLOUDY    63  53  72 SE12      29.94F
NORTH PLATTE   CLOUDY    61  54  77 E14       29.98F
MCCOOK         CLOUDY    67  54  63 SE18      29.93F
LEXINGTON      CLOUDY    59  57  94 E13       29.99F
PAXTON           N/A     61  56  84 E12         N/A
GOTHENBURG       N/A     57  53  86 E12         N/A
CALLAWAY         N/A     58  58  99 E10         N/A
$$

...NORTH PLATTE AREA...

CITY           SKY/WX    TMP DP  RH WIND       PRES   REMARKS
AIRPORT        CLOUDY    61  54  77 E14       29.98F
DOWNTOWN         N/A     61  55  81 MISG        N/A
$$

...SOME WEATHER OBSERVATIONS FROM AROUND THE REGION...

CITY           SKY/WX    TMP DP  RH WIND       PRES   REMARKS
DENVER         PTSUNNY   56  45  66 N15       29.92F
LARAMIE        MOSUNNY   53  38  56 SE15      29.94F
CHEYENNE       CLOUDY    54  44  69 SW8       29.95S
SCOTTSBLUFF    CLOUDY    57  53  86 SE15      29.94F
RAPID CITY     CLOUDY    56  49  77 E8        30.02F
PIERRE         CLOUDY    61  53  75 E13       30.04F
WINNER         CLOUDY    62  53  72 SE15      30.05F
SIOUX FALLS    CLOUDY    65  52  62 S10       30.10F
OMAHA          CLOUDY    65  57  75 S5        30.11F
GRAND ISLAND   CLOUDY    60  56  86 E8        30.06F
KANSAS CITY    CLOUDY    67  60  78 SE16      30.10F
WICHITA        TSTM      59  57  93 NE13      30.03S FOG
HAYS           CLOUDY    61  52  72 E14       29.95F
LIBERAL        PTSUNNY   64  57  77 SE16      29.93F
GOODLAND       PTSUNNY   67  55  65 SE14G23   29.89F
$$



USA.gov is the U.S. government's official web portal to all federal, state and local government web resources and services.